Wind_Speed
37 37 36 34 33 36 38 38 39 40 41 42 43 40 39 38 35 35 35 34 34 33 35 33 31 29 26 25 23 25 27 28
41 40 39 39 40 43 44 44 43 44 45 47 46 44 41 38 36 35 37 38 37 37 38 39 35 33 29 27 29 31 33 34
44 45 45 45 45 44 45 47 48 50 52 52 52 47 44 40 38 37 37 38 39 37 36 38 39 36 35 36 34 35 32 36
44 45 47 49 49 49 49 48 49 51 52 53 51 48 43 40 40 42 41 40 40 41 38 37 38 39 40 41 41 38 38 36
46 47 48 50 52 54 54 52 51 49 48 50 49 49 49 49 47 44 37 41 41 43 43 41 39 40 42 45 44 41 39 36
48 49 50 49 49 50 52 54 54 54 53 52 51 53 54 53 53 51 51 50 47 42 42 44 45 44 45 44 48 45 42 38
49 49 50 51 51 50 50 51 54 53 53 54 54 55 56 57 57 57 57 57 56 54 54 50 47 51 50 49 50 47 44 42
47 51 51 52 51 51 52 52 54 56 59 59 59 60 60 60 61 61 62 63 63 63 61 62 60 56 55 55 54 53 48 44
44 43 44 47 50 51 52 53 55 56 58 60 62 63 64 65 64 65 66 67 66 67 67 67 67 68 66 64 63 60 57 56
52 50 51 52 52 53 54 56 57 59 59 59 62 65 66 66 65 67 69 69 69 70 70 72 72 71 72 69 67 66 62 59
56 56 56 56 57 58 60 61 63 65 66 66 67 66 65 67 69 71 73 73 73 74 75 73 72 71 72 73 71 69 66 66
61 62 62 64 64 66 67 68 71 72 73 75 76 76 76 76 75 74 75 77 80 80 78 79 77 75 73 72 73 78 80 75
67 68 69 70 72 73 73 75 76 78 78 80 81 82 82 84 84 82 81 82 83 84 86 87 86 84 80 76 73 74 74 69
73 73 74 75 76 77 79 81 84 87 88 89 90 90 90 89 88 89 89 87 88 90 90 90 91 91 89 86 80 78 79 73
76 77 78 80 81 83 84 88 91 93 94 94 95 95 96 96 95 95 93 93 93 94 95 96 95 96 96 95 92 86 84 80
81 82 84 84 86 88 91 94 97 98 99 98 98 98 99 97 96 97 98 97 98 99 101 103 105 104 105 104 99 97 92 88
86 88 89 91 92 96 98 101 102 103 104 103 100 102 101 99 99 100 102 104 105 107 110 112 113 112 113 113 112 105 104 98
91 93 95 98 100 102 104 107 108 108 108 103 103 103 103 103 104 104 106 107 108 109 111 114 113 112 112 112 115 116 110 107
96 98 101 104 106 108 110 111 112 110 108 106 105 103 102 101 101 103 104 104 104 103 103 104 102 102 102 102 102 108 110 106
103 105 106 109 111 114 114 114 113 109 108 106 102 100 100 99 99 97 94 93 93 91 90 89 88 89 90 91 92 90 94 100
Wind_Direction
282 284 284 282 278 277 278 280 280 282 283 286 287 285 286 283 278 277 277 280 282 283 286 290 289 287 287 293 294 302 300 297
281 278 278 280 279 278 277 278 279 280 283 287 286 285 286 282 278 274 273 275 278 283 282 281 285 282 281 287 286 297 299 295
284 279 278 279 281 277 278 278 281 283 284 286 286 281 280 282 274 271 270 272 273 275 275 273 276 275 275 280 286 292 294 291
293 289 284 281 280 278 278 277 276 279 280 282 281 280 276 282 273 274 273 272 273 277 277 274 274 269 271 273 284 288 292 290
290 289 288 287 286 285 284 281 279 279 278 277 277 276 275 273 274 271 270 275 277 276 276 279 277 266 270 268 279 286 288 287
289 287 288 289 288 287 286 285 284 282 281 277 276 277 276 275 274 272 273 269 269 271 272 272 274 274 272 272 274 283 280 283
288 289 289 290 289 287 285 285 286 287 285 282 278 275 276 276 275 272 272 271 267 266 265 264 267 267 266 270 274 278 276 279
290 287 287 288 290 291 290 287 285 285 284 284 283 280 277 275 273 271 272 271 269 263 263 265 262 263 265 265 266 271 272 273
299 297 296 292 288 287 290 291 289 286 282 281 283 283 280 277 275 273 272 270 267 266 263 262 263 261 261 264 267 269 270 271
308 307 306 304 301 298 297 295 294 291 289 286 284 281 278 277 276 275 272 272 270 268 266 265 263 260 261 263 262 264 266 266
308 309 308 307 305 303 301 299 299 298 296 294 291 286 282 279 277 276 275 273 270 270 270 267 265 264 262 259 257 259 259 262
308 308 307 308 308 306 304 303 301 299 297 294 291 290 288 285 280 277 275 274 274 274 271 270 267 265 263 260 259 258 257 256
307 307 307 307 306 305 304 304 300 299 296 293 291 288 286 285 284 282 278 276 273 272 272 272 271 268 263 262 261 257 254 256
305 304 305 305 304 304 304 304 304 302 299 297 294 291 289 286 282 279 276 273 269 268 267 268 268 268 268 265 259 257 255 255
302 303 302 303 304 303 302 301 301 301 300 298 295 292 291 289 285 280 276 273 269 266 265 264 264 265 264 263 262 258 258 253
302 302 303 303 303 302 302 301 302 302 302 298 296 293 291 289 286 281 277 274 270 267 265 263 263 261 261 261 259 257 255 252
303 303 303 302 302 302 303 301 301 301 301 298 298 295 292 290 287 283 280 277 274 272 270 267 266 264 262 260 260 258 254 250
303 303 303 303 303 303 302 301 301 301 302 300 298 297 293 290 287 285 284 281 280 277 274 272 271 269 267 263 261 259 256 252
303 302 302 304 304 302 302 303 302 301 300 299 297 295 291 288 287 287 286 283 280 277 275 274 273 271 269 265 261 257 256 252
302 303 303 302 302 305 304 302 303 302 301 300 297 294 293 292 289 288 286 284 282 279 277 275 274 272 268 265 263 258 253 251
Height
10779 10777 10775 10774 10773 10771 10770 10768 10767 10765 10763 10761 10759 10758 10756 10754 10753 10750 10748 10745 10744 10743 10741 10739 10738 10738 10736 10736 10735 10733 10731 10728
10769 10768 10767 10766 10764 10762 10760 10759 10757 10756 10754 10752 10750 10748 10747 10746 10745 10745 10743 10740 10738 10737 10734 10732 10732 10732 10730 10728 10728 10726 10725 10722
10761 10760 10757 10756 10755 10753 10751 10750 10747 10745 10743 10741 10740 10739 10737 10737 10736 10735 10734 10733 10732 10730 10729 10727 10724 10724 10723 10722 10720 10719 10717 10715
10749 10748 10746 10744 10743 10742 10741 10740 10738 10736 10734 10731 10729 10728 10728 10728 10727 10725 10724 10724 10722 10721 10719 10718 10716 10715 10713 10713 10712 10710 10710 10708
10739 10737 10736 10733 10731 10729 10727 10727 10727 10725 10724 10721 10718 10717 10717 10716 10716 10715 10713 10713 10712 10711 10708 10707 10707 10705 10704 10703 10702 10701 10700 10700
10730 10728 10726 10724 10722 10719 10716 10713 10713 10712 10711 10710 10708 10707 10705 10704 10703 10702 10701 10701 10700 10699 10698 10697 10696 10694 10693 10692 10692 10693 10691 10691
10722 10719 10716 10714 10711 10709 10707 10704 10701 10699 10698 10697 10696 10694 10692 10691 10690 10689 10688 10687 10687 10686 10685 10684 10683 10681 10682 10681 10680 10681 10682 10680
10712 10710 10707 10704 10700 10697 10695 10694 10692 10689 10684 10681 10680 10680 10679 10678 10677 10675 10674 10672 10671 10670 10670 10670 10670 10668 10667 10668 10669 10669 10670 10671
10703 10699 10696 10693 10689 10686 10682 10679 10676 10673 10671 10668 10665 10662 10660 10660 10661 10660 10658 10656 10653 10652 10652 10652 10652 10652 10652 10654 10655 10657 10659 10658
10691 10687 10684 10681 10677 10674 10670 10666 10662 10658 10655 10653 10650 10647 10644 10640 10639 10639 10637 10635 10633 10633 10633 10632 10634 10634 10635 10636 10638 10639 10643 10644
10677 10673 10670 10666 10662 10658 10653 10649 10644 10641 10637 10634 10630 10627 10622 10619 10617 10614 10612 10610 10609 10609 10608 10610 10610 10612 10617 10620 10619 10621 10624 10627
10663 10660 10655 10650 10645 10640 10635 10631 10626 10622 10617 10612 10608 10604 10601 10598 10595 10592 10589 10586 10582 10581 10582 10581 10584 10587 10592 10596 10599 10602 10604 10606
10650 10644 10639 10634 10628 10622 10618 10613 10608 10603 10598 10593 10588 10584 10580 10575 10571 10567 10564 10561 10558 10555 10554 10553 10552 10556 10562 10569 10574 10576 10580 10585
10636 10631 10625 10619 10613 10606 10599 10591 10584 10577 10571 10565 10559 10555 10551 10548 10544 10540 10536 10532 10529 10527 10525 10526 10524 10524 10528 10535 10547 10550 10551 10565
10622 10616 10610 10604 10597 10589 10581 10574 10566 10557 10549 10541 10533 10526 10521 10515 10512 10509 10505 10503 10499 10495 10494 10493 10495 10492 10495 10501 10509 10519 10523 10532
10607 10600 10593 10585 10577 10570 10562 10553 10543 10534 10525 10516 10508 10501 10494 10488 10481 10476 10471 10467 10463 10460 10459 10456 10456 10459 10459 10462 10475 10482 10491 10505
10587 10580 10573 10565 10557 10548 10540 10531 10522 10513 10502 10490 10479 10469 10462 10457 10451 10445 10439 10433 10429 10426 10421 10416 10416 10421 10424 10425 10427 10442 10453 10466
10566 10559 10551 10543 10534 10525 10515 10505 10496 10484 10474 10464 10453 10443 10431 10421 10413 10408 10402 10397 10392 10386 10380 10376 10377 10379 10381 10385 10388 10393 10408 10424
10545 10536 10527 10518 10508 10499 10489 10479 10468 10457 10446 10436 10425 10415 10405 10394 10384 10375 10368 10360 10353 10349 10345 10339 10339 10338 10338 10341 10346 10353 10360 10376
10521 10513 10504 10494 10483 10474 10462 10451 10440 10428 10417 10406 10395 10385 10376 10366 10355 10346 10335 10325 10318 10315 10311 10310 10306 10304 10305 10304 10308 10315 10324 10334